Time,TemperatureF,DewpointF,PressureIn,WindDirection,WindDirectionDegrees,WindSpeedMPH,WindSpeedGustMPH,Humidity,HourlyPrecipIn,Conditions,Clouds,dailyrainin,SolarRadiationWatts/m^2,SoftwareType,DateUTC
2013-02-03 00:11:00,22.5,8.3,30.36,NW,318,3.0,3.0,54,0.00,,,0.00,0,Wunderground v.1.15,2013-02-03 07:11:00,
2013-02-03 00:20:00,21.8,8.5,30.36,NW,309,3.0,3.0,56,0.00,,,0.00,0,Wunderground v.1.15,2013-02-03 07:20:00,
2013-02-03 00:31:00,20.6,8.5,30.35,NW,318,2.0,2.0,59,0.00,,,0.00,0,Wunderground v.1.15,2013-02-03 07:31:00,
2013-02-03 00:40:00,19.1,8.6,30.35,NNW,329,1.0,8.0,63,0.00,,,0.00,0,Wunderground v.1.15,2013-02-03 07:40:00,
2013-02-03 01:00:00,17.9,8.5,30.34,North,355,1.0,6.0,66,0.00,,,0.00,0,Wunderground v.1.15,2013-02-03 08:00:00,
2013-02-03 01:21:00,18.2,7.7,30.34,NNW,344,1.0,1.0,63,0.00,,,0.00,0,Wunderground v.1.15,2013-02-03 08:21:00,
2013-02-03 01:30:00,18.4,7.5,30.34,West,261,3.0,3.0,62,0.00,,,0.00,0,Wunderground v.1.15,2013-02-03 08:30:00,
2013-02-03 01:50:00,18.6,8.1,30.34,NW,319,0.0,0.0,63,0.00,,,0.00,0,Wunderground v.1.15,2013-02-03 08:50:00,
2013-02-03 02:00:00,17.8,8.0,30.34,NW,319,0.0,0.0,65,0.00,,,0.00,0,Wunderground v.1.15,2013-02-03 09:00:00,
2013-02-03 02:10:00,16.8,7.7,30.34,West,273,1.0,2.0,67,0.00,,,0.00,0,Wunderground v.1.15,2013-02-03 09:10:00,
2013-02-03 02:20:00,16.1,8.0,30.34,West,280,1.0,1.0,70,0.00,,,0.00,0,Wunderground v.1.15,2013-02-03 09:20:00,
2013-02-03 02:30:00,17.6,7.8,30.33,SSW,212,3.0,3.0,65,0.00,,,0.00,0,Wunderground v.1.15,2013-02-03 09:30:00,
2013-02-03 02:40:00,20.1,8.4,30.33,SSW,202,2.0,2.0,60,0.00,,,0.00,0,Wunderground v.1.15,2013-02-03 09:40:00,
2013-02-03 03:00:00,21.4,8.1,30.33,SSW,205,2.0,2.0,56,0.00,,,0.00,0,Wunderground v.1.15,2013-02-03 10:00:00,
2013-02-03 03:20:00,22.1,8.0,30.32,WSW,253,2.0,2.0,54,0.00,,,0.00,0,Wunderground v.1.15,2013-02-03 10:20:00,
2013-02-03 03:40:00,22.1,7.6,30.31,SW,234,4.0,4.0,53,0.00,,,0.00,0,Wunderground v.1.15,2013-02-03 10:40:00,
2013-02-03 03:50:00,22.3,7.7,30.31,West,262,2.0,2.0,53,0.00,,,0.00,0,Wunderground v.1.15,2013-02-03 10:50:00,
2013-02-03 04:00:00,22.5,7.5,30.30,North,360,1.0,1.0,52,0.00,,,0.00,0,Wunderground v.1.15,2013-02-03 11:00:00,
2013-02-03 04:20:00,20.2,6.6,30.30,NNW,334,1.0,1.0,55,0.00,,,0.00,0,Wunderground v.1.15,2013-02-03 11:20:00,
2013-02-03 04:30:00,19.3,6.9,30.30,WNW,296,1.0,1.0,58,0.00,,,0.00,0,Wunderground v.1.15,2013-02-03 11:30:00,
2013-02-03 04:50:00,18.8,6.1,30.30,WNW,297,0.0,0.0,57,0.00,,,0.00,0,Wunderground v.1.15,2013-02-03 11:50:00,
2013-02-03 05:10:00,17.5,7.0,30.29,NW,316,2.0,2.0,63,0.00,,,0.00,0,Wunderground v.1.15,2013-02-03 12:10:00,
2013-02-03 05:30:00,15.4,7.4,30.29,WNW,303,2.0,2.0,70,0.00,,,0.00,0,Wunderground v.1.15,2013-02-03 12:30:00,
2013-02-03 05:50:00,14.9,6.9,30.28,NW,308,2.0,2.0,70,0.00,,,0.00,0,Wunderground v.1.15,2013-02-03 12:50:00,
2013-02-03 06:00:00,15.2,7.8,30.28,NW,305,2.0,5.0,72,0.00,,,0.00,0,Wunderground v.1.15,2013-02-03 13:00:00,
2013-02-03 06:10:00,14.6,7.2,30.28,NW,304,2.0,3.0,72,0.00,,,0.00,0,Wunderground v.1.15,2013-02-03 13:10:00,
2013-02-03 06:20:00,14.6,6.9,30.28,NW,305,2.0,5.0,71,0.00,,,0.00,0,Wunderground v.1.15,2013-02-03 13:20:00,
2013-02-03 06:30:00,13.9,7.1,30.27,NW,305,3.0,4.0,74,0.00,,,0.00,0,Wunderground v.1.15,2013-02-03 13:30:00,
2013-02-03 06:50:00,14.1,6.7,30.26,NNW,344,4.0,6.0,72,0.00,,,0.00,0,Wunderground v.1.15,2013-02-03 13:50:00,
2013-02-03 07:10:00,14.2,6.8,30.26,South,172,2.0,2.0,72,0.00,,,0.00,0,Wunderground v.1.15,2013-02-03 14:10:00,
2013-02-03 07:20:00,14.9,6.9,30.26,SW,233,1.0,1.0,70,0.00,,,0.00,5,Wunderground v.1.15,2013-02-03 14:20:00,
2013-02-03 07:40:00,16.0,7.9,30.26,WNW,286,2.0,3.0,70,0.00,,,0.00,32,Wunderground v.1.15,2013-02-03 14:40:00,
2013-02-03 08:10:00,17.4,9.0,30.26,NW,323,4.0,4.0,69,0.00,,,0.00,74,Wunderground v.1.15,2013-02-03 15:10:00,
2013-02-03 08:30:00,18.9,10.7,30.25,North,355,1.0,1.0,70,0.00,,,0.00,93,Wunderground v.1.15,2013-02-03 15:30:00,
2013-02-03 08:40:00,19.7,11.2,30.25,NNW,327,0.0,0.0,69,0.00,,,0.00,127,Wunderground v.1.15,2013-02-03 15:40:00,
2013-02-03 09:20:00,29.3,10.6,30.23,NE,49,1.0,1.0,45,0.00,,,0.00,283,Wunderground v.1.15,2013-02-03 16:20:00,
2013-02-03 09:30:00,30.8,10.4,30.22,North,351,1.0,3.0,42,0.00,,,0.00,276,Wunderground v.1.15,2013-02-03 16:30:00,
2013-02-03 10:00:00,33.6,11.2,30.21,NW,313,1.0,1.0,39,0.00,,,0.00,338,Wunderground v.1.15,2013-02-03 17:00:00,
2013-02-03 10:10:00,34.9,10.6,30.20,SE,146,2.0,3.0,36,0.00,,,0.00,373,Wunderground v.1.15,2013-02-03 17:10:00,
2013-02-03 10:20:00,35.8,11.4,30.20,South,183,5.0,5.0,36,0.00,,,0.00,371,Wunderground v.1.15,2013-02-03 17:20:00,
2013-02-03 10:30:00,36.3,11.2,30.19,South,177,6.0,6.0,35,0.00,,,0.00,367,Wunderground v.1.15,2013-02-03 17:30:00,
2013-02-03 10:50:00,36.9,10.4,30.19,SW,221,8.0,8.0,33,0.00,,,0.00,371,Wunderground v.1.15,2013-02-03 17:50:00,
2013-02-03 11:00:00,37.1,11.3,30.18,SSW,209,8.0,8.0,34,0.00,,,0.00,424,Wunderground v.1.15,2013-02-03 18:00:00,
2013-02-03 11:10:00,37.3,11.5,30.17,SSW,197,7.0,7.0,34,0.00,,,0.00,420,Wunderground v.1.15,2013-02-03 18:10:00,
2013-02-03 11:20:00,37.1,11.3,30.17,South,169,9.0,9.0,34,0.00,,,0.00,408,Wunderground v.1.15,2013-02-03 18:20:00,
2013-02-03 11:51:00,37.7,11.1,30.15,SSW,197,9.0,9.0,33,0.00,,,0.00,445,Wunderground v.1.15,2013-02-03 18:51:00,
2013-02-03 12:00:00,37.6,11.7,30.14,SSE,168,9.0,9.0,34,0.00,,,0.00,464,Wunderground v.1.15,2013-02-03 19:00:00,
2013-02-03 12:30:00,38.3,10.3,30.12,ESE,113,8.0,8.0,31,0.00,,,0.00,404,Wunderground v.1.15,2013-02-03 19:30:00,
2013-02-03 12:40:00,38.2,10.2,30.11,ESE,123,8.0,12.0,31,0.00,,,0.00,404,Wunderground v.1.15,2013-02-03 19:40:00,
2013-02-03 12:50:00,38.3,11.0,30.10,SSE,148,6.0,6.0,32,0.00,,,0.00,415,Wunderground v.1.15,2013-02-03 19:50:00,
2013-02-03 13:00:00,38.3,11.7,30.09,SE,138,6.0,6.0,33,0.00,,,0.00,411,Wunderground v.1.15,2013-02-03 20:00:00,
2013-02-03 13:10:00,38.2,12.3,30.09,SSE,150,7.0,10.0,34,0.00,,,0.00,376,Wunderground v.1.15,2013-02-03 20:10:00,
2013-02-03 13:41:00,38.2,11.6,30.07,East,92,7.0,10.0,33,0.00,,,0.00,417,Wunderground v.1.15,2013-02-03 20:41:00,
2013-02-03 13:50:00,38.3,11.7,30.07,SE,140,9.0,9.0,33,0.00,,,0.00,413,Wunderground v.1.15,2013-02-03 20:50:00,
2013-02-03 14:00:00,38.8,11.4,30.06,SSE,150,6.0,6.0,32,0.00,,,0.00,353,Wunderground v.1.15,2013-02-03 21:00:00,
2013-02-03 14:20:00,37.8,11.2,30.05,ESE,119,9.0,14.0,33,0.00,,,0.00,295,Wunderground v.1.15,2013-02-03 21:20:00,
2013-02-03 14:30:00,37.8,11.2,30.05,SE,144,9.0,9.0,33,0.00,,,0.00,308,Wunderground v.1.15,2013-02-03 21:30:00,
2013-02-03 14:50:00,37.1,11.9,30.05,SE,131,8.0,10.0,35,0.00,,,0.00,278,Wunderground v.1.15,2013-02-03 21:50:00,
2013-02-03 15:00:00,36.7,10.9,30.07,SE,135,8.0,14.0,34,0.00,,,0.00,269,Wunderground v.1.15,2013-02-03 22:00:00,
2013-02-03 15:21:00,36.1,10.4,30.07,SSE,148,11.0,14.0,34,0.00,,,0.00,232,Wunderground v.1.15,2013-02-03 22:21:00,
2013-02-03 15:30:00,35.8,10.1,30.08,SE,129,11.0,11.0,34,0.00,,,0.00,207,Wunderground v.1.15,2013-02-03 22:30:00,
2013-02-03 15:40:00,35.4,9.1,30.08,ENE,77,9.0,9.0,33,0.00,,,0.00,190,Wunderground v.1.15,2013-02-03 22:40:00,
2013-02-03 15:50:00,35.4,10.4,30.08,SE,141,8.0,11.0,35,0.00,,,0.00,186,Wunderground v.1.15,2013-02-03 22:50:00,
2013-02-03 16:10:00,34.3,8.8,30.08,NE,46,7.0,7.0,34,0.00,,,0.00,88,Wunderground v.1.15,2013-02-03 23:10:00,
2013-02-03 16:20:00,33.7,9.5,30.06,East,100,8.0,8.0,36,0.00,,,0.00,79,Wunderground v.1.15,2013-02-03 23:20:00,
2013-02-03 16:41:00,32.9,8.8,30.08,SE,132,14.0,14.0,36,0.00,,,0.00,53,Wunderground v.1.15,2013-02-03 23:41:00,
2013-02-03 16:50:00,32.8,8.7,30.09,South,177,9.0,9.0,36,0.00,,,0.00,28,Wunderground v.1.15,2013-02-03 23:50:00,
2013-02-03 17:00:00,31.8,9.0,30.09,ESE,119,8.0,8.0,38,0.00,,,0.00,23,Wunderground v.1.15,2013-02-04 00:00:00,
2013-02-03 17:20:00,30.2,8.7,30.09,SSE,150,3.0,3.0,40,0.00,,,0.00,7,Wunderground v.1.15,2013-02-04 00:20:00,
2013-02-03 17:30:00,29.6,9.3,30.08,ESE,115,1.0,1.0,42,0.00,,,0.00,0,Wunderground v.1.15,2013-02-04 00:30:00,
2013-02-03 18:00:00,28.8,8.0,30.09,North,360,10.0,11.0,41,0.00,,,0.00,0,Wunderground v.1.15,2013-02-04 01:00:00,
2013-02-03 18:10:00,29.1,8.3,30.08,WNW,284,8.0,8.0,41,0.00,,,0.00,0,Wunderground v.1.15,2013-02-04 01:10:00,
2013-02-03 18:20:00,29.7,8.3,30.09,WNW,296,12.0,16.0,40,0.00,,,0.00,0,Wunderground v.1.15,2013-02-04 01:20:00,
2013-02-03 18:40:00,29.0,7.7,30.08,WNW,286,19.0,19.0,40,0.00,,,0.00,0,Wunderground v.1.15,2013-02-04 01:40:00,
2013-02-03 18:50:00,29.3,7.4,30.08,WSW,257,20.0,20.0,39,0.00,,,0.00,0,Wunderground v.1.15,2013-02-04 01:50:00,
2013-02-03 19:00:00,29.3,7.4,30.10,WSW,254,20.0,20.0,39,0.00,,,0.00,0,Wunderground v.1.15,2013-02-04 02:00:00,
2013-02-03 19:10:00,29.2,6.7,30.10,SW,220,15.0,16.0,38,0.00,,,0.00,0,Wunderground v.1.15,2013-02-04 02:10:00,
2013-02-03 19:31:00,28.9,6.4,30.11,SE,146,9.0,9.0,38,0.00,,,0.00,0,Wunderground v.1.15,2013-02-04 02:31:00,
2013-02-03 19:40:00,28.5,6.6,30.12,ENE,70,6.0,6.0,39,0.00,,,0.00,0,Wunderground v.1.15,2013-02-04 02:40:00,
2013-02-03 20:01:00,28.1,6.8,30.11,West,265,7.0,7.0,40,0.00,,,0.00,0,Wunderground v.1.15,2013-02-04 03:01:00,
2013-02-03 20:10:00,27.7,6.5,30.11,SSW,202,4.0,4.0,40,0.00,,,0.00,0,Wunderground v.1.15,2013-02-04 03:10:00,
2013-02-03 20:41:00,28.1,7.4,30.11,South,180,6.0,6.0,41,0.00,,,0.00,0,Wunderground v.1.15,2013-02-04 03:41:00,
2013-02-03 20:50:00,28.4,7.1,30.11,SSW,204,13.0,13.0,40,0.00,,,0.00,0,Wunderground v.1.15,2013-02-04 03:50:00,
2013-02-03 21:00:00,28.2,6.9,30.11,West,260,13.0,13.0,40,0.00,,,0.00,0,Wunderground v.1.15,2013-02-04 04:00:00,
2013-02-03 21:21:00,26.4,5.8,30.10,SW,232,14.0,14.0,41,0.00,,,0.00,0,Wunderground v.1.15,2013-02-04 04:21:00,
2013-02-03 21:30:00,25.9,5.9,30.11,SW,236,9.0,9.0,42,0.00,,,0.00,0,Wunderground v.1.15,2013-02-04 04:30:00,
2013-02-03 21:40:00,25.8,5.8,30.12,WSW,242,9.0,9.0,42,0.00,,,0.00,0,Wunderground v.1.15,2013-02-04 04:40:00,
2013-02-03 21:50:00,25.4,5.5,30.11,West,275,6.0,6.0,42,0.00,,,0.00,0,Wunderground v.1.15,2013-02-04 04:50:00,
2013-02-03 22:00:00,25.0,5.1,30.11,WSW,238,5.0,6.0,42,0.00,,,0.00,0,Wunderground v.1.15,2013-02-04 05:00:00,
2013-02-03 22:10:00,24.7,5.3,30.10,SW,229,11.0,18.0,43,0.00,,,0.00,0,Wunderground v.1.15,2013-02-04 05:10:00,
2013-02-03 22:30:00,25.3,5.4,30.11,WNW,284,20.0,20.0,42,0.00,,,0.00,0,Wunderground v.1.15,2013-02-04 05:30:00,
2013-02-03 22:40:00,25.4,6.0,30.10,West,280,17.0,17.0,43,0.00,,,0.00,0,Wunderground v.1.15,2013-02-04 05:40:00,
2013-02-03 23:01:00,25.1,6.2,30.10,WSW,244,17.0,21.0,44,0.00,,,0.00,0,Wunderground v.1.15,2013-02-04 06:01:00,
2013-02-03 23:10:00,25.4,6.0,30.09,WSW,239,21.0,21.0,43,0.00,,,0.00,0,Wunderground v.1.15,2013-02-04 06:10:00,
2013-02-03 23:20:00,25.7,6.3,30.08,WSW,244,23.0,23.0,43,0.00,,,0.00,0,Wunderground v.1.15,2013-02-04 06:20:00,
2013-02-03 23:51:00,24.9,5.0,30.11,West,276,17.0,17.0,42,0.00,,,0.00,0,Wunderground v.1.15,2013-02-04 06:51:00,